{"data":{"norad_id":65258,"intl_designator":"2025-179Z","name":"STARLINK-34980","alt_names":[],"object_type":"PAYLOAD","status":"ACTIVE","operator":null,"country":"US","launch_date":"2025-08-18","launch_site_code":"AFWTR","launch_vehicle":null,"mission":null,"orbit_class":"UNKNOWN","rcs_meters":null,"size_class":null,"mass_kg":null,"dimensions":null,"purposes":["comms"],"wikipedia_slug":null,"has_3d_model":false,"image_url":null,"decayed_at":null,"tle_current":{"epoch":"2026-09-20T20:53:25.943424Z","epoch_age_seconds":85523,"freshness":"FRESH","line1":"1 65258U 25179Z   26263.87043916  .00016259  00000+0  50455-3 0  9991","line2":"2 65258  97.2809 303.0994 0000550 123.9778 236.1518 15.33464277 61362","mean_motion":15.33464277,"eccentricity":5.5e-5,"inclination_deg":97.2809,"raan_deg":303.0994,"arg_perigee_deg":123.9778,"mean_anomaly_deg":236.1518,"bstar":0.00050455,"rev_number":6136,"period_min":93.905024172924,"perigee_km":465.10942103437,"apogee_km":465.86221954461,"semimajor_km":6843.6228202895,"source":"CELESTRAK","updated_at":"2026-09-21T09:00:35.562718Z"}}}